Check out our new BloomSky Weather System.

Active alerts


No alerts


Thunder radar  blitzortung!


Rain radar more information rain snow radar


Visit our other weather sites:

Template documentation
and downloads

And another site



Weather Underground History page Text

Daily Summary for May 11, 2017 Units:  English    Metric   Both
« Previous Day
Next Day »
Daily Weekly Monthly Yearly Custom
  High: Low: Average:
Temperature: 86.2 °F 72.9 °F 78.7 °F
Dew Point: 75.7 °F 68.2 °F 72.1 °F
Humidity: 95 % 61 % 82 %
Wind Speed: 15.0 mph 0.0 mph 4.4 mph
Wind Gust: 19.0 mph - -
Wind:- - SSE
Pressure: 29.96 in 29.78 in -
Precipitation: 0.00 in    
Historical Graphs
 
 
Tabular Data for May 11, 2017
Time Temperature Dew Point Pressure Wind Wind Speed Wind Gust Humidity Rainfall Rate (Hourly)
00:02 74.5 °F 70.7 °F 29.96 in SSE 2.0 mph 6.0 mph 88 % 0.00 in
00:07 74.3 °F 70.5 °F 29.96 in ESE 2.0 mph 6.0 mph 88 % 0.00 in
00:12 74.3 °F 70.5 °F 29.96 in SE 4.0 mph 4.0 mph 88 % 0.00 in
00:17 74.1 °F 70.7 °F 29.95 in SE 3.0 mph 4.0 mph 89 % 0.00 in
00:22 74.1 °F 70.7 °F 29.95 in SE 4.0 mph 6.0 mph 89 % 0.00 in
00:27 74.1 °F 70.7 °F 29.95 in SE 4.0 mph 6.0 mph 89 % 0.00 in
00:32 74.1 °F 70.7 °F 29.95 in ESE 3.0 mph 6.0 mph 89 % 0.00 in
00:37 74.1 °F 70.7 °F 29.95 in ESE 2.0 mph 6.0 mph 89 % 0.00 in
00:42 73.9 °F 70.5 °F 29.94 in SE 3.0 mph 7.0 mph 89 % 0.00 in
00:47 73.9 °F 70.9 °F 29.94 in ESE 3.0 mph 7.0 mph 90 % 0.00 in
00:52 73.9 °F 70.9 °F 29.94 in ESE 1.0 mph 7.0 mph 90 % 0.00 in
00:57 73.8 °F 70.7 °F 29.94 in South 1.0 mph 5.0 mph 90 % 0.00 in
01:02 73.8 °F 70.7 °F 29.94 in SSE 2.0 mph 6.0 mph 90 % 0.00 in
01:07 73.8 °F 70.7 °F 29.94 in SE 2.0 mph 6.0 mph 90 % 0.00 in
01:12 73.6 °F 70.7 °F 29.94 in ESE 2.0 mph 6.0 mph 91 % 0.00 in
01:17 73.6 °F 70.7 °F 29.94 in SSW 2.0 mph 5.0 mph 91 % 0.00 in
01:22 73.6 °F 70.7 °F 29.94 in ESE 1.0 mph 5.0 mph 91 % 0.00 in
01:27 73.6 °F 70.7 °F 29.94 in SSE 4.0 mph 5.0 mph 91 % 0.00 in
01:32 73.4 °F 70.5 °F 29.93 in SE 2.0 mph 5.0 mph 91 % 0.00 in
01:37 73.2 °F 70.5 °F 29.93 in East 1.0 mph 5.0 mph 91 % 0.00 in
01:42 73.2 °F 70.7 °F 29.92 in Calm   5.0 mph 92 % 0.00 in
01:47 73.0 °F 70.5 °F 29.92 in ESE 2.0 mph 4.0 mph 92 % 0.00 in
01:52 73.0 °F 70.5 °F 29.92 in East 1.0 mph 3.0 mph 92 % 0.00 in
01:57 73.0 °F 70.5 °F 29.92 in ESE 2.0 mph 3.0 mph 92 % 0.00 in
02:02 73.0 °F 70.5 °F 29.91 in ESE 2.0 mph 3.0 mph 92 % 0.00 in
02:08 72.9 °F 70.7 °F 29.91 in ESE 1.0 mph 5.0 mph 93 % 0.00 in
02:13 72.9 °F 70.7 °F 29.91 in ESE 2.0 mph 5.0 mph 93 % 0.00 in
02:18 72.9 °F 70.7 °F 29.91 in ESE 2.0 mph 7.0 mph 93 % 0.00 in
02:23 72.9 °F 70.7 °F 29.91 in ESE 2.0 mph 7.0 mph 93 % 0.00 in
02:28 72.9 °F 70.7 °F 29.91 in SE 2.0 mph 7.0 mph 93 % 0.00 in
02:33 72.9 °F 71.1 °F 29.91 in ESE 3.0 mph 6.0 mph 94 % 0.00 in
02:38 72.9 °F 71.1 °F 29.90 in SE 4.0 mph 6.0 mph 94 % 0.00 in
02:43 73.0 °F 71.2 °F 29.90 in SSE 5.0 mph 6.0 mph 94 % 0.00 in
02:48 73.0 °F 71.2 °F 29.90 in Calm   5.0 mph 94 % 0.00 in
02:53 73.0 °F 71.2 °F 29.90 in SSE 1.0 mph 5.0 mph 94 % 0.00 in
02:58 73.0 °F 71.2 °F 29.91 in South 2.0 mph 5.0 mph 94 % 0.00 in
03:03 73.0 °F 71.2 °F 29.90 in SSE 3.0 mph 4.0 mph 94 % 0.00 in
03:08 73.0 °F 71.2 °F 29.90 in SSE 2.0 mph 4.0 mph 94 % 0.00 in
03:13 73.2 °F 71.4 °F 29.90 in South 1.0 mph 4.0 mph 94 % 0.00 in
03:18 73.2 °F 71.4 °F 29.90 in SSE 2.0 mph 5.0 mph 94 % 0.00 in
03:23 73.2 °F 71.4 °F 29.90 in SE 2.0 mph 5.0 mph 94 % 0.00 in
03:28 73.2 °F 71.4 °F 29.89 in Calm   5.0 mph 94 % 0.00 in
03:33 73.2 °F 71.8 °F 29.89 in SE 1.0 mph 5.0 mph 95 % 0.00 in
03:38 73.4 °F 72.0 °F 29.90 in SSE 2.0 mph 6.0 mph 95 % 0.00 in
03:43 73.4 °F 72.0 °F 29.89 in SSE 2.0 mph 6.0 mph 95 % 0.00 in
03:48 73.6 °F 72.1 °F 29.89 in SE 4.0 mph 6.0 mph 95 % 0.00 in
03:53 73.6 °F 72.1 °F 29.89 in SSE 3.0 mph 6.0 mph 95 % 0.00 in
03:58 73.6 °F 72.1 °F 29.89 in SE 2.0 mph 6.0 mph 95 % 0.00 in
04:03 73.8 °F 72.3 °F 29.88 in South 3.0 mph 6.0 mph 95 % 0.00 in
04:08 73.8 °F 72.3 °F 29.88 in East 6.0 mph 8.0 mph 95 % 0.00 in
04:13 73.8 °F 72.3 °F 29.87 in SE 7.0 mph 10.0 mph 95 % 0.00 in
04:18 73.9 °F 72.5 °F 29.87 in SSE 5.0 mph 10.0 mph 95 % 0.00 in
04:23 73.9 °F 72.5 °F 29.86 in ESE 4.0 mph 10.0 mph 95 % 0.00 in
04:28 74.1 °F 72.7 °F 29.86 in SE 3.0 mph 10.0 mph 95 % 0.00 in
04:33 74.1 °F 72.7 °F 29.86 in SSW 5.0 mph 11.0 mph 95 % 0.00 in
04:38 74.1 °F 72.7 °F 29.86 in SE 4.0 mph 11.0 mph 95 % 0.00 in
04:43 74.1 °F 72.7 °F 29.86 in South 3.0 mph 11.0 mph 95 % 0.00 in
04:48 74.1 °F 72.7 °F 29.86 in SSE 3.0 mph 8.0 mph 95 % 0.00 in
04:53 74.1 °F 72.7 °F 29.86 in SE 4.0 mph 8.0 mph 95 % 0.00 in
04:58 74.1 °F 72.7 °F 29.86 in South 3.0 mph 10.0 mph 95 % 0.00 in
05:03 74.1 °F 72.7 °F 29.86 in SE 4.0 mph 10.0 mph 95 % 0.00 in
05:08 74.3 °F 72.9 °F 29.87 in SSE 4.0 mph 10.0 mph 95 % 0.00 in
05:13 74.3 °F 72.9 °F 29.87 in South 2.0 mph 10.0 mph 95 % 0.00 in
05:18 74.3 °F 72.9 °F 29.87 in SE 5.0 mph 8.0 mph 95 % 0.00 in
05:23 74.5 °F 73.0 °F 29.86 in SE 5.0 mph 9.0 mph 95 % 0.00 in
05:28 74.5 °F 73.0 °F 29.86 in SE 4.0 mph 9.0 mph 95 % 0.00 in
05:34 74.7 °F 73.2 °F 29.86 in SE 4.0 mph 9.0 mph 95 % 0.00 in
05:39 74.7 °F 73.2 °F 29.86 in ESE 2.0 mph 8.0 mph 95 % 0.00 in
05:44 74.7 °F 73.2 °F 29.86 in ESE 5.0 mph 8.0 mph 95 % 0.00 in
05:49 74.7 °F 73.2 °F 29.87 in ESE 4.0 mph 8.0 mph 95 % 0.00 in
05:54 74.8 °F 73.2 °F 29.87 in SE 2.0 mph 8.0 mph 95 % 0.00 in
05:59 74.8 °F 73.2 °F 29.88 in East 2.0 mph 8.0 mph 95 % 0.00 in
06:04 74.8 °F 73.2 °F 29.88 in ESE 1.0 mph 7.0 mph 95 % 0.00 in
06:09 74.8 °F 73.2 °F 29.88 in SE 1.0 mph 7.0 mph 95 % 0.00 in
06:14 74.8 °F 73.2 °F 29.88 in ESE 1.0 mph 5.0 mph 95 % 0.00 in
06:19 74.8 °F 73.2 °F 29.88 in Calm   4.0 mph 95 % 0.00 in
06:24 74.8 °F 73.2 °F 29.89 in Calm   3.0 mph 95 % 0.00 in
06:26 74.8 °F 73.2 °F 29.89 in Calm   3.0 mph 95 % 0.00 in
06:31 74.8 °F 73.2 °F 29.90 in Calm   2.0 mph 95 % 0.00 in
06:39 74.8 °F 73.2 °F 29.91 in Calm   1.0 mph 95 % 0.00 in
06:44 74.8 °F 73.2 °F 29.91 in Calm   1.0 mph 95 % 0.00 in
06:49 74.8 °F 73.2 °F 29.91 in Calm   2.0 mph 95 % 0.00 in
06:54 74.8 °F 73.2 °F 29.91 in Calm   2.0 mph 95 % 0.00 in
06:59 74.8 °F 73.2 °F 29.91 in Calm   2.0 mph 95 % 0.00 in
07:04 74.8 °F 73.2 °F 29.92 in Calm   1.0 mph 95 % 0.00 in
07:09 75.0 °F 73.4 °F 29.92 in Calm   1.0 mph 95 % 0.00 in
07:14 75.0 °F 73.4 °F 29.92 in NNW 1.0 mph 1.0 mph 95 % 0.00 in
07:19 75.0 °F 73.4 °F 29.93 in Calm   1.0 mph 95 % 0.00 in
07:24 75.2 °F 73.6 °F 29.93 in Calm   1.0 mph 95 % 0.00 in
07:29 75.2 °F 73.6 °F 29.94 in Calm   1.0 mph 95 % 0.00 in
07:34 75.0 °F 73.4 °F 29.94 in Calm   1.0 mph 95 % 0.00 in
07:39 75.2 °F 73.6 °F 29.94 in Calm   1.0 mph 95 % 0.00 in
07:44 75.2 °F 73.6 °F 29.94 in Calm   2.0 mph 95 % 0.00 in
07:49 75.2 °F 73.6 °F 29.94 in Calm   2.0 mph 95 % 0.00 in
07:54 75.4 °F 73.8 °F 29.94 in Calm   2.0 mph 95 % 0.00 in
08:00 75.4 °F 73.8 °F 29.94 in Calm     95 % 0.00 in
08:05 75.6 °F 73.9 °F 29.95 in Calm   2.0 mph 95 % 0.00 in
08:10 75.7 °F 74.1 °F 29.95 in Calm   2.0 mph 95 % 0.00 in
08:15 75.9 °F 74.3 °F 29.95 in Calm   2.0 mph 95 % 0.00 in
08:20 76.3 °F 74.7 °F 29.95 in Calm   1.0 mph 95 % 0.00 in
08:25 76.6 °F 74.8 °F 29.94 in Calm   1.0 mph 94 % 0.00 in
08:30 76.8 °F 75.0 °F 29.94 in NE 1.0 mph 2.0 mph 94 % 0.00 in
08:35 77.0 °F 74.8 °F 29.94 in Calm   3.0 mph 93 % 0.00 in
08:40 77.2 °F 75.0 °F 29.94 in Calm   3.0 mph 93 % 0.00 in
08:45 77.2 °F 74.7 °F 29.94 in ESE 2.0 mph 3.0 mph 92 % 0.00 in
08:50 77.0 °F 74.5 °F 29.94 in ENE 1.0 mph 2.0 mph 92 % 0.00 in
08:55 76.8 °F 74.3 °F 29.94 in Calm   2.0 mph 92 % 0.00 in
09:00 76.8 °F 74.3 °F 29.94 in Calm   3.0 mph 92 % 0.00 in
09:05 76.8 °F 74.3 °F 29.94 in Calm   3.0 mph 92 % 0.00 in
09:10 76.8 °F 74.3 °F 29.95 in Calm   3.0 mph 92 % 0.00 in
09:15 76.6 °F 74.1 °F 29.95 in Calm   3.0 mph 92 % 0.00 in
09:20 76.8 °F 74.3 °F 29.95 in Calm   2.0 mph 92 % 0.00 in
09:25 76.8 °F 74.3 °F 29.95 in ENE 1.0 mph 2.0 mph 92 % 0.00 in
09:30 77.0 °F 74.5 °F 29.95 in NE 1.0 mph 2.0 mph 92 % 0.00 in
09:35 77.0 °F 74.5 °F 29.95 in Calm   2.0 mph 92 % 0.00 in
09:40 76.8 °F 74.3 °F 29.94 in North 1.0 mph 3.0 mph 92 % 0.00 in
09:45 76.8 °F 74.3 °F 29.95 in Calm   3.0 mph 92 % 0.00 in
09:50 76.6 °F 74.1 °F 29.95 in Calm   3.0 mph 92 % 0.00 in
09:55 76.6 °F 74.1 °F 29.95 in SE 1.0 mph 4.0 mph 92 % 0.00 in
10:00 76.6 °F 74.5 °F 29.95 in South 1.0 mph 4.0 mph 93 % 0.00 in
10:05 76.6 °F 74.5 °F 29.95 in SE 2.0 mph 4.0 mph 93 % 0.00 in
10:10 77.0 °F 74.8 °F 29.94 in East 2.0 mph 4.0 mph 93 % 0.00 in
10:15 77.2 °F 75.0 °F 29.94 in SE 1.0 mph 4.0 mph 93 % 0.00 in
10:20 77.5 °F 75.0 °F 29.94 in SE 4.0 mph 5.0 mph 92 % 0.00 in
10:25 77.9 °F 75.0 °F 29.94 in SSE 4.0 mph 9.0 mph 91 % 0.00 in
10:30 78.4 °F 74.8 °F 29.94 in SSE 4.0 mph 9.0 mph 89 % 0.00 in
10:35 78.6 °F 74.5 °F 29.94 in ESE 4.0 mph 9.0 mph 87 % 0.00 in
10:40 79.2 °F 75.0 °F 29.94 in SE 3.0 mph 9.0 mph 87 % 0.00 in
10:45 79.3 °F 74.8 °F 29.95 in ESE 4.0 mph 9.0 mph 86 % 0.00 in
10:50 79.5 °F 74.7 °F 29.94 in South 4.0 mph 9.0 mph 85 % 0.00 in
10:55 79.7 °F 74.8 °F 29.94 in SSE 3.0 mph 9.0 mph 85 % 0.00 in
11:01 80.1 °F 75.2 °F 29.94 in SSE 4.0 mph 8.0 mph 85 % 0.00 in
11:06 81.0 °F 75.7 °F 29.94 in SE 3.0 mph 7.0 mph 84 % 0.00 in
11:11 81.7 °F 74.8 °F 29.94 in SE 8.0 mph 9.0 mph 80 % 0.00 in
11:16 81.9 °F 75.4 °F 29.94 in SE 7.0 mph 11.0 mph 81 % 0.00 in
11:21 81.7 °F 74.5 °F 29.94 in SSW 4.0 mph 12.0 mph 79 % 0.00 in
11:26 81.7 °F 74.5 °F 29.94 in SE 6.0 mph 12.0 mph 79 % 0.00 in
11:31 81.3 °F 74.1 °F 29.93 in SSE 7.0 mph 12.0 mph 79 % 0.00 in
11:36 81.3 °F 74.1 °F 29.93 in SSE 2.0 mph 12.0 mph 79 % 0.00 in
11:41 81.3 °F 74.1 °F 29.94 in South 6.0 mph 12.0 mph 79 % 0.00 in
11:46 81.3 °F 74.1 °F 29.94 in South 4.0 mph 8.0 mph 79 % 0.00 in
11:51 81.7 °F 74.1 °F 29.94 in South 7.0 mph 11.0 mph 78 % 0.00 in
11:56 82.6 °F 75.0 °F 29.94 in ESE 3.0 mph 11.0 mph 78 % 0.00 in
12:01 82.9 °F 75.0 °F 29.94 in SSE 9.0 mph 13.0 mph 77 % 0.00 in
12:06 83.3 °F 74.5 °F 29.93 in South 8.0 mph 13.0 mph 75 % 0.00 in
12:11 82.9 °F 74.1 °F 29.93 in SE 7.0 mph 13.0 mph 75 % 0.00 in
12:16 82.2 °F 74.3 °F 29.93 in SSE 2.0 mph 9.0 mph 77 % 0.00 in
12:21 81.7 °F 74.1 °F 29.93 in SSE 4.0 mph 11.0 mph 78 % 0.00 in
12:26 81.3 °F 74.5 °F 29.93 in South 2.0 mph 11.0 mph 80 % 0.00 in
12:31 81.1 °F 75.2 °F 29.93 in ESE 9.0 mph 11.0 mph 82 % 0.00 in
12:36 81.0 °F 74.7 °F 29.92 in SE 2.0 mph 9.0 mph 81 % 0.00 in
12:41 81.1 °F 74.7 °F 29.92 in SSE 4.0 mph 10.0 mph 81 % 0.00 in
12:46 82.0 °F 74.8 °F 29.92 in South 8.0 mph 11.0 mph 79 % 0.00 in
12:51 82.6 °F 75.0 °F 29.92 in SE 8.0 mph 13.0 mph 78 % 0.00 in
12:56 83.1 °F 74.8 °F 29.91 in SSE 8.0 mph 13.0 mph 76 % 0.00 in
13:01 83.8 °F 75.0 °F 29.91 in SE 4.0 mph 16.0 mph 75 % 0.00 in
13:06 84.6 °F 75.0 °F 29.91 in SSE 9.0 mph 16.0 mph 73 % 0.00 in
13:11 84.6 °F 73.8 °F 29.91 in SE 6.0 mph 16.0 mph 70 % 0.00 in
13:16 84.2 °F 74.1 °F 29.91 in SE 5.0 mph 15.0 mph 72 % 0.00 in
13:21 84.4 °F 73.9 °F 29.91 in SSE 6.0 mph 15.0 mph 71 % 0.00 in
13:26 84.9 °F 74.1 °F 29.90 in SE 9.0 mph 15.0 mph 70 % 0.00 in
13:31 85.1 °F 74.1 °F 29.90 in SSE 7.0 mph 15.0 mph 70 % 0.00 in
13:36 85.3 °F 74.8 °F 29.90 in SSE 5.0 mph 15.0 mph 71 % 0.00 in
13:41 85.1 °F 74.1 °F 29.90 in SE 8.0 mph 16.0 mph 70 % 0.00 in
13:46 85.5 °F 74.5 °F 29.89 in South 10.0 mph 16.0 mph 70 % 0.00 in
13:51 85.8 °F 74.5 °F 29.90 in SE 6.0 mph 16.0 mph 69 % 0.00 in
13:56 85.5 °F 73.8 °F 29.89 in SE 13.0 mph 17.0 mph 68 % 0.00 in
14:01 85.3 °F 73.9 °F 29.89 in SSE 7.0 mph 17.0 mph 69 % 0.00 in
14:06 84.9 °F 74.1 °F 29.89 in ESE 11.0 mph 18.0 mph 70 % 0.00 in
14:11 84.9 °F 73.6 °F 29.89 in East 9.0 mph 18.0 mph 69 % 0.00 in
14:16 84.7 °F 73.0 °F 29.89 in SE 9.0 mph 18.0 mph 68 % 0.00 in
14:21 85.3 °F 73.0 °F 29.89 in SE 12.0 mph 17.0 mph 67 % 0.00 in
14:26 86.2 °F 73.4 °F 29.89 in South 7.0 mph 17.0 mph 66 % 0.00 in
14:31 86.0 °F 73.2 °F 29.88 in SE 9.0 mph 19.0 mph 66 % 0.00 in
14:36 86.2 °F 73.0 °F 29.88 in ESE 13.0 mph 19.0 mph 65 % 0.00 in
14:41 86.0 °F 72.9 °F 29.88 in SE 11.0 mph 19.0 mph 65 % 0.00 in
14:46 85.5 °F 72.9 °F 29.88 in SE 10.0 mph 19.0 mph 66 % 0.00 in
14:51 85.5 °F 72.9 °F 29.88 in SSE 8.0 mph 19.0 mph 66 % 0.00 in
14:56 85.6 °F 73.0 °F 29.88 in South 9.0 mph 19.0 mph 66 % 0.00 in
15:01 85.6 °F 72.5 °F 29.88 in South 14.0 mph 18.0 mph 65 % 0.00 in
15:06 85.3 °F 73.0 °F 29.88 in South 8.0 mph 18.0 mph 67 % 0.00 in
15:12 84.7 °F 72.5 °F 29.88 in SE 10.0 mph 17.0 mph 67 % 0.00 in
15:17 84.9 °F 72.7 °F 29.88 in SE 10.0 mph 18.0 mph 67 % 0.00 in
15:22 85.6 °F 73.4 °F 29.88 in SE 10.0 mph 18.0 mph 67 % 0.00 in
15:27 85.3 °F 72.7 °F 29.87 in ESE 5.0 mph 18.0 mph 66 % 0.00 in
15:32 85.5 °F 72.9 °F 29.87 in SE 6.0 mph 16.0 mph 66 % 0.00 in
15:37 85.5 °F 73.2 °F 29.86 in SSE 11.0 mph 16.0 mph 67 % 0.00 in
15:42 86.0 °F 72.9 °F 29.86 in ESE 10.0 mph 16.0 mph 65 % 0.00 in
15:47 86.0 °F 72.9 °F 29.86 in SE 15.0 mph 16.0 mph 65 % 0.00 in
15:52 85.5 °F 72.3 °F 29.86 in SSE 7.0 mph 16.0 mph 65 % 0.00 in
15:57 84.9 °F 71.4 °F 29.86 in SE 7.0 mph 17.0 mph 64 % 0.00 in
16:02 85.3 °F 72.1 °F 29.85 in SE 8.0 mph 19.0 mph 65 % 0.00 in
16:07 85.5 °F 72.3 °F 29.85 in SSE 8.0 mph 19.0 mph 65 % 0.00 in
16:12 85.3 °F 72.1 °F 29.85 in SE 8.0 mph 19.0 mph 65 % 0.00 in
16:17 84.9 °F 71.8 °F 29.85 in SE 11.0 mph 17.0 mph 65 % 0.00 in
16:22 84.7 °F 72.5 °F 29.85 in SSW 10.0 mph 17.0 mph 67 % 0.00 in
16:27 84.4 °F 72.7 °F 29.85 in SSW 5.0 mph 16.0 mph 68 % 0.00 in
16:32 84.6 °F 72.3 °F 29.85 in SE 8.0 mph 15.0 mph 67 % 0.00 in
16:37 84.4 °F 72.1 °F 29.85 in South 9.0 mph 17.0 mph 67 % 0.00 in
16:42 84.0 °F 72.0 °F 29.84 in ESE 7.0 mph 17.0 mph 67 % 0.00 in
16:47 84.4 °F 71.8 °F 29.84 in SE 7.0 mph 17.0 mph 66 % 0.00 in
16:52 84.4 °F 72.1 °F 29.84 in South 6.0 mph 17.0 mph 67 % 0.00 in
16:57 84.0 °F 71.4 °F 29.84 in South 8.0 mph 17.0 mph 66 % 0.00 in
17:02 83.8 °F 71.8 °F 29.83 in SSW 8.0 mph 17.0 mph 67 % 0.00 in
17:07 84.0 °F 72.0 °F 29.83 in SE 13.0 mph 17.0 mph 67 % 0.00 in
17:12 84.0 °F 71.4 °F 29.83 in SSE 6.0 mph 17.0 mph 66 % 0.00 in
17:17 84.0 °F 72.0 °F 29.83 in East 9.0 mph 17.0 mph 67 % 0.00 in
17:22 84.4 °F 71.8 °F 29.82 in ESE 11.0 mph 17.0 mph 66 % 0.00 in
17:27 84.6 °F 71.4 °F 29.82 in ESE 11.0 mph 16.0 mph 65 % 0.00 in
17:32 84.6 °F 71.1 °F 29.82 in SSW 6.0 mph 16.0 mph 64 % 0.00 in
17:37 84.6 °F 71.1 °F 29.82 in East 12.0 mph 16.0 mph 64 % 0.00 in
17:42 84.7 °F 70.7 °F 29.82 in SSE 9.0 mph 16.0 mph 63 % 0.00 in
17:47 84.7 °F 69.8 °F 29.81 in ESE 9.0 mph 16.0 mph 61 % 0.00 in
17:52 84.6 °F 70.2 °F 29.81 in SE 10.0 mph 17.0 mph 62 % 0.00 in
17:57 84.0 °F 70.0 °F 29.81 in SE 9.0 mph 17.0 mph 63 % 0.00 in
18:02 84.0 °F 70.5 °F 29.81 in South 5.0 mph 17.0 mph 64 % 0.00 in
18:03 84.0 °F 70.5 °F 29.81 in South 6.0 mph 17.0 mph 64 % 0.00 in
18:08 84.0 °F 70.5 °F 29.81 in South 10.0 mph 16.0 mph 64 % 0.00 in
18:13 84.0 °F 69.6 °F 29.81 in SSE 7.0 mph 16.0 mph 62 % 0.00 in
18:18 84.0 °F 69.1 °F 29.81 in ESE 12.0 mph 16.0 mph 61 % 0.00 in
18:23 83.8 °F 69.4 °F 29.81 in SE 4.0 mph 16.0 mph 62 % 0.00 in
18:28 83.7 °F 69.3 °F 29.81 in South 11.0 mph 16.0 mph 62 % 0.00 in
18:33 83.7 °F 69.3 °F 29.81 in South 3.0 mph 16.0 mph 62 % 0.00 in
18:38 83.5 °F 69.1 °F 29.80 in SSW 8.0 mph 15.0 mph 62 % 0.00 in
18:43 83.1 °F 68.4 °F 29.80 in SE 9.0 mph 15.0 mph 61 % 0.00 in
18:48 83.1 °F 68.4 °F 29.79 in South 9.0 mph 17.0 mph 61 % 0.00 in
18:53 82.8 °F 68.4 °F 29.78 in SSW 9.0 mph 17.0 mph 62 % 0.00 in
18:58 82.6 °F 68.2 °F 29.78 in SSE 6.0 mph 17.0 mph 62 % 0.00 in
19:03 82.2 °F 68.4 °F 29.79 in SSE 12.0 mph 16.0 mph 63 % 0.00 in
19:08 82.0 °F 68.7 °F 29.79 in SSE 14.0 mph 16.0 mph 64 % 0.00 in
19:13 81.9 °F 68.5 °F 29.78 in SE 7.0 mph 18.0 mph 64 % 0.00 in
19:18 81.7 °F 68.7 °F 29.79 in SSW 11.0 mph 18.0 mph 65 % 0.00 in
19:23 81.3 °F 68.9 °F 29.78 in ESE 13.0 mph 19.0 mph 66 % 0.00 in
19:28 81.1 °F 68.7 °F 29.78 in SE 8.0 mph 19.0 mph 66 % 0.00 in
19:33 81.0 °F 68.5 °F 29.79 in SE 9.0 mph 19.0 mph 66 % 0.00 in
19:38 80.8 °F 68.4 °F 29.79 in SSW 8.0 mph 17.0 mph 66 % 0.00 in
19:43 80.4 °F 68.5 °F 29.80 in South 7.0 mph 17.0 mph 67 % 0.00 in
19:48 80.2 °F 68.4 °F 29.79 in SSE 7.0 mph 17.0 mph 67 % 0.00 in
19:53 80.1 °F 68.5 °F 29.80 in SSE 6.0 mph 16.0 mph 68 % 0.00 in
19:58 79.9 °F 68.4 °F 29.80 in SSW 5.0 mph 16.0 mph 68 % 0.00 in
20:03 79.5 °F 68.5 °F 29.81 in SSW 5.0 mph 16.0 mph 69 % 0.00 in
20:08 79.3 °F 68.7 °F 29.81 in SSW 7.0 mph 13.0 mph 70 % 0.00 in
20:13 79.3 °F 68.7 °F 29.81 in SE 5.0 mph 13.0 mph 70 % 0.00 in
20:18 79.2 °F 68.9 °F 29.81 in SE 3.0 mph 13.0 mph 71 % 0.00 in
20:23 79.0 °F 68.7 °F 29.82 in SSE 3.0 mph 13.0 mph 71 % 0.00 in
20:29 78.8 °F 69.1 °F 29.83 in South 6.0 mph 13.0 mph 72 % 0.00 in
20:34 78.6 °F 68.9 °F 29.83 in SE 3.0 mph 9.0 mph 72 % 0.00 in
20:39 78.6 °F 68.9 °F 29.84 in SSE 1.0 mph 9.0 mph 72 % 0.00 in
20:44 78.6 °F 69.3 °F 29.85 in SE 1.0 mph 7.0 mph 73 % 0.00 in
20:49 78.4 °F 69.1 °F 29.85 in SSE 1.0 mph 6.0 mph 73 % 0.00 in
20:54 78.4 °F 69.4 °F 29.85 in SSE 1.0 mph 6.0 mph 74 % 0.00 in
20:59 78.4 °F 69.4 °F 29.85 in SSE 2.0 mph 5.0 mph 74 % 0.00 in
21:04 78.4 °F 69.8 °F 29.85 in SSW 4.0 mph 7.0 mph 75 % 0.00 in
21:09 78.4 °F 69.8 °F 29.85 in SW 2.0 mph 8.0 mph 75 % 0.00 in
21:14 78.4 °F 69.8 °F 29.85 in SE 4.0 mph 8.0 mph 75 % 0.00 in
21:20 78.3 °F 70.0 °F 29.85 in SSW 2.0 mph 8.0 mph 76 % 0.00 in
21:22 78.3 °F 70.0 °F 29.85 in SSE 3.0 mph 8.0 mph 76 % 0.00 in
21:27 78.3 °F 70.0 °F 29.85 in South 3.0 mph 8.0 mph 76 % 0.00 in
21:32 78.1 °F 70.0 °F 29.86 in South 6.0 mph 8.0 mph 76 % 0.00 in
21:37 78.1 °F 70.3 °F 29.85 in South 4.0 mph 9.0 mph 77 % 0.00 in
21:42 78.1 °F 70.3 °F 29.85 in South 6.0 mph 9.0 mph 77 % 0.00 in
21:46 77.9 °F 70.2 °F 29.86 in South 3.0 mph 9.0 mph 77 % 0.00 in
21:51 77.7 °F 70.0 °F 29.85 in South 5.0 mph 10.0 mph 77 % 0.00 in
21:56 77.7 °F 70.3 °F 29.86 in SE 2.0 mph 10.0 mph 78 % 0.00 in
22:01 77.5 °F 70.2 °F 29.86 in SE 1.0 mph 10.0 mph 78 % 0.00 in
22:06 77.5 °F 70.2 °F 29.86 in SSW 3.0 mph 7.0 mph 78 % 0.00 in
22:11 77.5 °F 70.5 °F 29.86 in SSW 2.0 mph 5.0 mph 79 % 0.00 in
22:16 77.4 °F 70.3 °F 29.87 in ESE 3.0 mph 4.0 mph 79 % 0.00 in
22:21 77.4 °F 70.7 °F 29.87 in SE 3.0 mph 6.0 mph 80 % 0.00 in
22:26 77.2 °F 70.5 °F 29.87 in SSW 2.0 mph 6.0 mph 80 % 0.00 in
22:31 77.2 °F 70.9 °F 29.87 in SSW 6.0 mph 6.0 mph 81 % 0.00 in
22:36 77.0 °F 70.7 °F 29.87 in SSE 3.0 mph 7.0 mph 81 % 0.00 in
22:41 76.8 °F 70.9 °F 29.87 in SW 4.0 mph 7.0 mph 82 % 0.00 in
22:46 76.8 °F 70.9 °F 29.86 in South 4.0 mph 7.0 mph 82 % 0.00 in
22:51 76.6 °F 71.1 °F 29.86 in SSE 3.0 mph 7.0 mph 83 % 0.00 in
22:56 76.6 °F 71.4 °F 29.86 in SSW 2.0 mph 8.0 mph 84 % 0.00 in
23:01 76.6 °F 71.4 °F 29.86 in South 4.0 mph 8.0 mph 84 % 0.00 in
23:06 76.5 °F 71.2 °F 29.86 in South 2.0 mph 8.0 mph 84 % 0.00 in
23:11 76.5 °F 71.6 °F 29.86 in SSE 2.0 mph 8.0 mph 85 % 0.00 in
23:16 76.5 °F 71.6 °F 29.86 in SSE 2.0 mph 8.0 mph 85 % 0.00 in
23:21 76.5 °F 72.0 °F 29.86 in SE 4.0 mph 8.0 mph 86 % 0.00 in
23:26 76.5 °F 72.0 °F 29.86 in SE 7.0 mph 8.0 mph 86 % 0.00 in
23:31 76.5 °F 72.0 °F 29.86 in South 8.0 mph 10.0 mph 86 % 0.00 in
23:36 76.5 °F 72.0 °F 29.86 in SSE 6.0 mph 10.0 mph 86 % 0.00 in
23:41 76.5 °F 72.0 °F 29.85 in South 6.0 mph 10.0 mph 86 % 0.00 in
23:46 76.5 °F 72.0 °F 29.85 in SSE 3.0 mph 10.0 mph 86 % 0.00 in
23:51 76.5 °F 72.0 °F 29.85 in SSE 6.0 mph 9.0 mph 86 % 0.00 in
23:56 76.3 °F 72.1 °F 29.85 in SSW 3.0 mph 9.0 mph 87 % 0.00 in
Spring, Texas: Villages of Bridgestone
Compliments of Weather Underground - 2.75 mb

Script developed by  Jim McMurry - jmcmurry@mwt.net Adapted for the template by  Wim van der Kuil - Leuven-Template.eu

You find our weather info also at:

UK Metoffice

WeatherCloud

Weather Underground

Mid-South Weather Network

AWEKAS

Citizen Weather Observer Program (CWOP)

HAMweather, WeatherForYou, PWS Weather

Equipment we use:

Weather-station
Davis Vantage Vue

Weather-program
Meteohub

Weather-server
Debian 7.9 x86 (Guest)

Provider
DreamHost

Davis Vantage Vue

Meteohub

Debian 7.9 x86 (Guest)

DreamHost